,,,PA_Meas_PMT16A,,PR_Meas_QMR101_102,,RH_Meas_QMH101,,SR_Meas_QMS101,,TA_Meas_QMH101,,GenWind,,GenWind,
date,time,status,PA,status,PR,status,RH,status,SR,status,TA,status,DirAvg,status,SpdAvg,
2009-08-03, 00:00:05,VALID,1000.09,VALID,0,VALID,59.4881,VALID,0,VALID,27.8601,VALID,189,VALID,2.87539,
2009-08-03, 00:01:05,VALID,1000.03,VALID,0,VALID,58.9541,VALID,0,VALID,27.8601,VALID,188,VALID,5.15781,
2009-08-03, 00:02:05,VALID,1000.03,VALID,0,VALID,58.9846,VALID,0,VALID,27.8775,VALID,172,VALID,5.44727,
2009-08-03, 00:03:05,VALID,999.935,VALID,0,VALID,58.6107,VALID,0,VALID,27.8796,VALID,186,VALID,7.35703,
2009-08-03, 00:04:05,VALID,1000,VALID,0,VALID,58.359,VALID,0,VALID,27.9773,VALID,176,VALID,7.04609,
2009-08-03, 00:05:05,VALID,999.994,VALID,0,VALID,58.3284,VALID,0,VALID,28.0554,VALID,178,VALID,6.4918,
2009-08-03, 00:06:05,VALID,1000,VALID,0,VALID,58.5955,VALID,0,VALID,28.0359,VALID,182,VALID,4.07383,
2009-08-03, 00:07:05,VALID,1000.01,VALID,0,VALID,58.8015,VALID,0,VALID,27.9577,VALID,185,VALID,3.10039,
2009-08-03, 00:08:05,VALID,999.989,VALID,0,VALID,59.183,VALID,0,VALID,27.9187,VALID,194,VALID,3.67891,
2009-08-03, 00:09:05,VALID,1000.01,VALID,0,VALID,59.0151,VALID,0,VALID,27.9577,VALID,209,VALID,3.31094,
2009-08-03, 00:10:05,VALID,999.978,VALID,0,VALID,58.832,VALID,0,VALID,27.9361,VALID,172,VALID,4.33125,
2009-08-03, 00:11:05,VALID,999.977,VALID,0,VALID,59.0533,VALID,0,VALID,27.9361,VALID,174,VALID,3.87031,
2009-08-03, 00:12:05,VALID,999.969,VALID,0,VALID,58.9999,VALID,0,VALID,27.9556,VALID,187,VALID,4.95039,
2009-08-03, 00:13:05,VALID,1000,VALID,0,VALID,59.2745,VALID,0,VALID,27.9556,VALID,185,VALID,3.61484,
2009-08-03, 00:14:05,VALID,999.943,VALID,0,VALID,58.9693,VALID,0,VALID,27.9773,VALID,198,VALID,4.84414,
2009-08-03, 00:15:05,VALID,999.941,VALID,0,VALID,58.9159,VALID,0,VALID,27.9752,VALID,176,VALID,4.73945,
2009-08-03, 00:16:05,VALID,999.889,VALID,0,VALID,59.3203,VALID,0,VALID,27.9577,VALID,184,VALID,3.28437,
2009-08-03, 00:17:05,VALID,999.888,VALID,0,VALID,59.3584,VALID,0,VALID,27.9187,VALID,206,VALID,3.625,
2009-08-03, 00:18:05,VALID,999.924,VALID,0,VALID,59.8086,VALID,0,VALID,27.8991,VALID,198,VALID,2.43008,
2009-08-03, 00:19:05,VALID,999.954,VALID,0,VALID,59.7399,VALID,0,VALID,27.8601,VALID,182,VALID,4.88672,
2009-08-03, 00:20:05,VALID,999.859,VALID,0,VALID,59.5644,VALID,0,VALID,27.9187,VALID,192,VALID,5.52656,
2009-08-03, 00:21:05,VALID,999.884,VALID,0,VALID,59.511,VALID,0,VALID,27.8991,VALID,176,VALID,4.0832,
2009-08-03, 00:22:05,VALID,999.843,VALID,0,VALID,59.4042,VALID,0,VALID,27.9187,VALID,195,VALID,3.99609,
2009-08-03, 00:23:05,VALID,999.892,VALID,0,VALID,59.6102,VALID,0,VALID,27.9187,VALID,189,VALID,2.96367,
2009-08-03, 00:24:05,VALID,999.886,VALID,0,VALID,59.9078,VALID,0,VALID,27.8991,VALID,191,VALID,3.30703,
2009-08-03, 00:25:05,VALID,999.853,VALID,0,VALID,59.7933,VALID,0,VALID,27.8775,VALID,216,VALID,3.43828,
2009-08-03, 00:26:04,VALID,999.865,VALID,0,VALID,59.8239,VALID,0,VALID,27.8796,VALID,192,VALID,3.12812,
2009-08-03, 00:27:04,VALID,999.892,VALID,0,VALID,59.45,VALID,0,VALID,27.9187,VALID,191,VALID,6.01523,
2009-08-03, 00:28:04,VALID,999.874,VALID,0,VALID,59.7476,VALID,0,VALID,27.9165,VALID,182,VALID,3.01094,
2009-08-03, 00:29:04,VALID,999.885,VALID,0,VALID,59.6179,VALID,0,VALID,27.8991,VALID,163,VALID,3.29922,
2009-08-03, 00:30:04,VALID,999.853,VALID,0,VALID,59.8544,VALID,0,VALID,27.8991,VALID,184,VALID,5.83008,
2009-08-03, 00:31:04,VALID,999.885,VALID,0,VALID,59.9841,VALID,0,VALID,27.8796,VALID,205,VALID,3.45,
2009-08-03, 00:32:04,VALID,999.761,VALID,0,VALID,59.6255,VALID,0,VALID,27.8796,VALID,191,VALID,6.34219,
2009-08-03, 00:33:04,VALID,999.789,VALID,0,VALID,58.9312,VALID,0,VALID,27.9556,VALID,173,VALID,5.55586,
2009-08-03, 00:34:04,VALID,999.747,VALID,0,VALID,59.0227,VALID,0,VALID,27.9968,VALID,172,VALID,6.25156,
2009-08-03, 00:35:04,VALID,999.773,VALID,0,VALID,58.6947,VALID,0,VALID,28.0164,VALID,185,VALID,6.93594,
2009-08-03, 00:36:04,VALID,999.746,VALID,0,VALID,58.7023,VALID,0,VALID,28.0554,VALID,169,VALID,4.13828,
2009-08-03, 00:37:04,VALID,999.731,VALID,0,VALID,58.8015,VALID,0,VALID,27.9773,VALID,170,VALID,3.56367,
2009-08-03, 00:38:04,VALID,999.796,VALID,0,VALID,59.3279,VALID,0,VALID,27.9382,VALID,162,VALID,3.71445,
2009-08-03, 00:39:04,VALID,999.784,VALID,0,VALID,59.3432,VALID,0,VALID,27.8384,VALID,172,VALID,4.07539,
2009-08-03, 00:40:04,VALID,999.82,VALID,0,VALID,59.6941,VALID,0,VALID,27.8405,VALID,187,VALID,4.50039,
2009-08-03, 00:41:04,VALID,999.814,VALID,0,VALID,59.7018,VALID,0,VALID,27.8405,VALID,200,VALID,2.79297,
2009-08-03, 00:42:04,VALID,999.811,VALID,0,VALID,59.4881,VALID,0,VALID,27.8363,VALID,206,VALID,3.36289,
2009-08-03, 00:43:04,VALID,999.802,VALID,0,VALID,59.5568,VALID,0,VALID,27.8579,VALID,173,VALID,3.77539,
2009-08-03, 00:44:04,VALID,999.805,VALID,0,VALID,59.6636,VALID,0.112286,VALID,27.8384,VALID,193,VALID,4.01094,
2009-08-03, 00:45:04,VALID,999.816,VALID,0,VALID,59.6865,VALID,0,VALID,27.8189,VALID,214,VALID,3.69805,
2009-08-03, 00:46:04,VALID,999.788,VALID,0,VALID,59.511,VALID,0,VALID,27.8579,VALID,208,VALID,4.73516,
2009-08-03, 00:47:04,VALID,999.839,VALID,0,VALID,59.9383,VALID,0,VALID,27.8168,VALID,168,VALID,3.31328,
2009-08-03, 00:48:04,VALID,999.764,VALID,0,VALID,59.7323,VALID,0.112286,VALID,27.7993,VALID,161,VALID,2.6125,
2009-08-03, 00:49:04,VALID,999.793,VALID,0,VALID,59.9078,VALID,0,VALID,27.7993,VALID,213,VALID,1.55078,
2009-08-03, 00:50:04,VALID,999.779,VALID,0,VALID,59.1448,VALID,0,VALID,27.8189,VALID,186,VALID,5.0582,
2009-08-03, 00:51:04,VALID,999.851,VALID,0,VALID,59.4576,VALID,0.112286,VALID,27.8168,VALID,175,VALID,5.90391,
2009-08-03, 00:52:04,VALID,999.849,VALID,0,VALID,59.5034,VALID,0,VALID,27.8189,VALID,166,VALID,3.87461,
2009-08-03, 00:53:04,VALID,999.765,VALID,0,VALID,59.7628,VALID,0,VALID,27.7798,VALID,188,VALID,3.43008,
2009-08-03, 00:54:04,VALID,999.84,VALID,0,VALID,59.511,VALID,0,VALID,27.7407,VALID,183,VALID,3.53711,
2009-08-03, 00:55:04,VALID,999.828,VALID,0,VALID,59.4424,VALID,0,VALID,27.7386,VALID,182,VALID,2.53555,
2009-08-03, 00:56:04,VALID,999.846,VALID,0,VALID,59.7323,VALID,0,VALID,27.7428,VALID,183,VALID,1.2668,
2009-08-03, 00:57:04,VALID,999.796,VALID,0,VALID,59.511,VALID,0,VALID,27.7428,VALID,195,VALID,2.44727,
2009-08-03, 00:58:04,VALID,999.819,VALID,0,VALID,59.45,VALID,0,VALID,27.7428,VALID,200,VALID,1.80625,
2009-08-03, 00:59:04,VALID,999.737,VALID,0,VALID,58.7633,VALID,0,VALID,27.7428,VALID,158,VALID,4.05977,
2009-08-03, 01:00:04,VALID,999.733,VALID,0,VALID,58.7176,VALID,0,VALID,27.7819,VALID,205,VALID,4.05234,
2009-08-03, 01:01:04,VALID,999.766,VALID,0,VALID,59.183,VALID,0,VALID,27.8014,VALID,182,VALID,2.3043,
2009-08-03, 01:02:04,VALID,999.739,VALID,0,VALID,58.0996,VALID,0,VALID,27.821,VALID,173,VALID,6.40078,
2009-08-03, 01:03:04,VALID,999.715,VALID,0,VALID,57.8325,VALID,0,VALID,27.8991,VALID,176,VALID,5.2125,
2009-08-03, 01:04:04,VALID,999.67,VALID,0,VALID,58.4505,VALID,0,VALID,27.8796,VALID,170,VALID,5.14141,
2009-08-03, 01:05:04,VALID,999.813,VALID,0,VALID,58.771,VALID,0,VALID,27.8601,VALID,206,VALID,2.65977,
2009-08-03, 01:06:04,VALID,999.687,VALID,0,VALID,57.9393,VALID,0,VALID,27.8384,VALID,160,VALID,4.53438,
2009-08-03, 01:07:04,VALID,999.714,VALID,0,VALID,58.5268,VALID,0,VALID,27.8384,VALID,193,VALID,1.87422,
2009-08-03, 01:08:04,VALID,999.694,VALID,0,VALID,58.1453,VALID,0,VALID,27.8405,VALID,171,VALID,3.76875,
2009-08-03, 01:09:04,VALID,999.724,VALID,0,VALID,58.0614,VALID,0,VALID,27.8601,VALID,193,VALID,3.58789,
2009-08-03, 01:10:04,VALID,999.648,VALID,0,VALID,57.6189,VALID,0,VALID,27.821,VALID,173,VALID,3.98633,
2009-08-03, 01:11:04,VALID,999.614,VALID,0,VALID,58.0996,VALID,0,VALID,27.821,VALID,158,VALID,4.32461,
2009-08-03, 01:12:04,VALID,999.628,VALID,0,VALID,57.329,VALID,0,VALID,27.821,VALID,193,VALID,4.60508,
2009-08-03, 01:13:04,VALID,999.624,VALID,0,VALID,57.1382,VALID,0,VALID,27.8991,VALID,189,VALID,4.6168,
2009-08-03, 01:14:04,VALID,999.54,VALID,0,VALID,56.6423,VALID,0,VALID,27.9773,VALID,186,VALID,4.66094,
2009-08-03, 01:15:04,VALID,999.6,VALID,0,VALID,56.2379,VALID,0,VALID,28.0533,VALID,179,VALID,7.80508,
2009-08-03, 01:16:04,VALID,999.613,VALID,0,VALID,56.6118,VALID,0,VALID,28.0533,VALID,165,VALID,4.14063,
2009-08-03, 01:17:04,VALID,999.621,VALID,0,VALID,57.184,VALID,0,VALID,27.9577,VALID,182,VALID,4.5918,
2009-08-03, 01:18:04,VALID,999.584,VALID,0,VALID,57.1306,VALID,0,VALID,27.9382,VALID,177,VALID,6.08945,
2009-08-03, 01:19:04,VALID,999.661,VALID,0,VALID,57.535,VALID,0,VALID,27.9165,VALID,173,VALID,6.91797,
2009-08-03, 01:20:04,VALID,999.615,VALID,0,VALID,57.5579,VALID,0,VALID,27.9165,VALID,200,VALID,4.83477,
2009-08-03, 01:21:04,VALID,999.689,VALID,0,VALID,57.2984,VALID,0,VALID,27.9361,VALID,197,VALID,4.02148,
2009-08-03, 01:22:04,VALID,999.581,VALID,0,VALID,57.8096,VALID,0,VALID,27.9382,VALID,186,VALID,6.38242,
2009-08-03, 01:23:04,VALID,999.555,VALID,0,VALID,57.6799,VALID,0,VALID,27.9382,VALID,185,VALID,5.90508,
2009-08-03, 01:24:04,VALID,999.535,VALID,0,VALID,57.5121,VALID,0,VALID,27.8991,VALID,192,VALID,3.73242,
2009-08-03, 01:25:04,VALID,999.569,VALID,0,VALID,58.4734,VALID,0,VALID,27.8405,VALID,192,VALID,4.66602,
2009-08-03, 01:26:04,VALID,999.569,VALID,0,VALID,58.8244,VALID,0,VALID,27.7212,VALID,129,VALID,1.3418,
2009-08-03, 01:27:04,VALID,999.453,VALID,0,VALID,58.2903,VALID,0,VALID,27.7212,VALID,176,VALID,4.68359,
2009-08-03, 01:28:04,VALID,999.441,VALID,0,VALID,58.153,VALID,0,VALID,27.7191,VALID,175,VALID,4.70547,
2009-08-03, 01:29:04,VALID,999.36,VALID,0,VALID,58.275,VALID,0,VALID,27.7603,VALID,163,VALID,4.02383,
2009-08-03, 01:30:04,VALID,999.367,VALID,0,VALID,57.9851,VALID,0,VALID,27.7582,VALID,178,VALID,3.37773,
2009-08-03, 01:31:04,VALID,999.45,VALID,0,VALID,58.4887,VALID,0,VALID,27.7212,VALID,165,VALID,2.27891,
2009-08-03, 01:32:04,VALID,999.447,VALID,0,VALID,58.3742,VALID,0,VALID,27.7017,VALID,165,VALID,3.72695,
2009-08-03, 01:33:04,VALID,999.333,VALID,0,VALID,58.1759,VALID,0,VALID,27.6626,VALID,168,VALID,3.0207,
2009-08-03, 01:34:04,VALID,999.431,VALID,0,VALID,58.3513,VALID,0,VALID,27.7017,VALID,170,VALID,3.79258,
2009-08-03, 01:35:04,VALID,999.407,VALID,0,VALID,58.4658,VALID,0.112286,VALID,27.6605,VALID,178,VALID,5.38242,
2009-08-03, 01:36:04,VALID,999.333,VALID,0,VALID,58.0843,VALID,0,VALID,27.7603,VALID,166,VALID,4.96289,
2009-08-03, 01:37:04,VALID,999.369,VALID,0,VALID,58.0156,VALID,0.112286,VALID,27.8189,VALID,177,VALID,4.11602,
2009-08-03, 01:38:04,VALID,999.286,VALID,0,VALID,58.069,VALID,0,VALID,27.7972,VALID,166,VALID,4.30664,
2009-08-03, 01:39:04,VALID,999.316,VALID,0,VALID,58.3132,VALID,0,VALID,27.7777,VALID,166,VALID,3.51992,
2009-08-03, 01:40:04,VALID,999.311,VALID,0,VALID,58.6031,VALID,0,VALID,27.7407,VALID,158,VALID,4.51523,
2009-08-03, 01:41:04,VALID,999.293,VALID,0,VALID,58.4124,VALID,0,VALID,27.7407,VALID,172,VALID,3.16563,
2009-08-03, 01:42:04,VALID,999.233,VALID,0,VALID,57.7333,VALID,0,VALID,27.7624,VALID,153,VALID,5.18398,
2009-08-03, 01:43:04,VALID,999.222,VALID,0,VALID,57.8401,VALID,0,VALID,27.7819,VALID,172,VALID,4.88164,
2009-08-03, 01:44:04,VALID,999.223,VALID,0,VALID,57.6647,VALID,0,VALID,27.7819,VALID,163,VALID,4.31445,
2009-08-03, 01:45:04,VALID,999.31,VALID,0,VALID,57.535,VALID,0,VALID,27.821,VALID,180,VALID,5.38477,
2009-08-03, 01:46:04,VALID,999.183,VALID,0,VALID,56.3371,VALID,0,VALID,27.8601,VALID,186,VALID,6.63984,
2009-08-03, 01:47:04,VALID,999.145,VALID,0,VALID,56.154,VALID,0,VALID,27.9577,VALID,159,VALID,6.34961,
2009-08-03, 01:48:04,VALID,999.225,VALID,0,VALID,56.009,VALID,0,VALID,27.9968,VALID,178,VALID,7.12109,
2009-08-03, 01:49:04,VALID,999.214,VALID,0,VALID,56.3066,VALID,0,VALID,27.9968,VALID,164,VALID,5.00977,
2009-08-03, 01:50:04,VALID,999.155,VALID,0,VALID,56.6347,VALID,0,VALID,27.8991,VALID,165,VALID,5.09883,
2009-08-03, 01:51:04,VALID,999.166,VALID,0,VALID,56.9551,VALID,0,VALID,27.821,VALID,170,VALID,4.19531,
2009-08-03, 01:52:04,VALID,999.171,VALID,0,VALID,57.1459,VALID,0,VALID,27.7603,VALID,170,VALID,4.33945,
2009-08-03, 01:53:04,VALID,999.088,VALID,0,VALID,57.1993,VALID,0,VALID,27.7624,VALID,163,VALID,5.33828,
2009-08-03, 01:54:04,VALID,999.098,VALID,0,VALID,57.1306,VALID,0,VALID,27.7212,VALID,161,VALID,3.76211,
2009-08-03, 01:55:04,VALID,999.107,VALID,0,VALID,57.1611,VALID,0,VALID,27.7233,VALID,171,VALID,3.91133,
2009-08-03, 01:56:04,VALID,999.174,VALID,0,VALID,57.7486,VALID,0,VALID,27.7233,VALID,167,VALID,3.82422,
2009-08-03, 01:57:04,VALID,999.129,VALID,0,VALID,57.1993,VALID,0,VALID,27.7407,VALID,179,VALID,5.66172,
2009-08-03, 01:58:04,VALID,999.117,VALID,0,VALID,57.2145,VALID,0,VALID,27.7798,VALID,178,VALID,5.71641,
2009-08-03, 01:59:04,VALID,999.125,VALID,0,VALID,57.4892,VALID,0,VALID,27.7191,VALID,173,VALID,3.72539,
2009-08-03, 02:00:04,VALID,999.125,VALID,0,VALID,57.9241,VALID,0,VALID,27.6214,VALID,170,VALID,5.03438,
2009-08-03, 02:01:04,VALID,999.042,VALID,0,VALID,57.6799,VALID,0,VALID,27.6214,VALID,188,VALID,5.30352,
2009-08-03, 02:02:04,VALID,999.016,VALID,0,VALID,58.0004,VALID,0,VALID,27.5824,VALID,161,VALID,4.01016,
2009-08-03, 02:03:04,VALID,999.009,VALID,0,VALID,57.9088,VALID,0,VALID,27.6235,VALID,176,VALID,6.33984,
2009-08-03, 02:04:04,VALID,999.036,VALID,0,VALID,57.7257,VALID,0,VALID,27.6626,VALID,156,VALID,4.41367,
2009-08-03, 02:05:04,VALID,998.988,VALID,0,VALID,57.2984,VALID,0,VALID,27.6431,VALID,156,VALID,5.11992,
2009-08-03, 02:06:04,VALID,999.003,VALID,0,VALID,57.6876,VALID,0,VALID,27.6431,VALID,160,VALID,5.84531,
2009-08-03, 02:07:04,VALID,999.03,VALID,0,VALID,57.4282,VALID,0,VALID,27.5845,VALID,164,VALID,4.31992,
2009-08-03, 02:08:04,VALID,999.014,VALID,0,VALID,57.3442,VALID,0,VALID,27.604,VALID,169,VALID,7.2,
2009-08-03, 02:09:04,VALID,998.953,VALID,0,VALID,57.4282,VALID,0,VALID,27.6821,VALID,197,VALID,4.62344,
2009-08-03, 02:10:04,VALID,998.986,VALID,0,VALID,57.802,VALID,0,VALID,27.6235,VALID,168,VALID,3.88125,
2009-08-03, 02:11:04,VALID,998.884,VALID,0,VALID,57.8249,VALID,0,VALID,27.5865,VALID,149,VALID,4.62813,
2009-08-03, 02:12:04,VALID,998.905,VALID,0,VALID,58.0538,VALID,0,VALID,27.5475,VALID,166,VALID,4.0125,
2009-08-03, 02:13:04,VALID,998.9,VALID,0,VALID,57.741,VALID,0,VALID,27.5475,VALID,171,VALID,4.74727,
2009-08-03, 02:14:04,VALID,998.867,VALID,0,VALID,57.2832,VALID,0,VALID,27.567,VALID,171,VALID,4.79375,
2009-08-03, 02:15:04,VALID,998.764,VALID,0,VALID,56.2532,VALID,0,VALID,27.6842,VALID,189,VALID,6.78086,
2009-08-03, 02:16:04,VALID,998.857,VALID,0,VALID,56.7873,VALID,0,VALID,27.7212,VALID,166,VALID,4.68398,
2009-08-03, 02:17:04,VALID,998.813,VALID,0,VALID,56.6194,VALID,0,VALID,27.7233,VALID,167,VALID,5.92305,
2009-08-03, 02:18:04,VALID,998.862,VALID,0,VALID,56.4973,VALID,0,VALID,27.7233,VALID,164,VALID,5.61992,
2009-08-03, 02:19:04,VALID,998.81,VALID,0,VALID,56.0243,VALID,0,VALID,27.7819,VALID,162,VALID,3.87188,
2009-08-03, 02:20:04,VALID,998.738,VALID,0,VALID,56.1006,VALID,0,VALID,27.7624,VALID,176,VALID,5.7875,
2009-08-03, 02:21:04,VALID,998.804,VALID,0,VALID,56.299,VALID,0,VALID,27.7624,VALID,159,VALID,4.35664,
2009-08-03, 02:22:04,VALID,998.808,VALID,0,VALID,56.7949,VALID,0,VALID,27.6821,VALID,162,VALID,3.66055,
2009-08-03, 02:23:04,VALID,998.761,VALID,0,VALID,56.3219,VALID,0,VALID,27.6235,VALID,158,VALID,5.98867,
2009-08-03, 02:24:04,VALID,998.776,VALID,0,VALID,55.7954,VALID,0,VALID,27.6842,VALID,157,VALID,5.75313,
2009-08-03, 02:25:04,VALID,998.727,VALID,0,VALID,55.5742,VALID,0,VALID,27.7428,VALID,168,VALID,4.99375,
2009-08-03, 02:26:04,VALID,998.774,VALID,0,VALID,55.5742,VALID,0,VALID,27.7819,VALID,169,VALID,4.13672,
2009-08-03, 02:27:04,VALID,998.806,VALID,0,VALID,55.597,VALID,0,VALID,27.7233,VALID,175,VALID,5.19609,
2009-08-03, 02:28:04,VALID,998.695,VALID,0,VALID,54.6204,VALID,0,VALID,27.7603,VALID,184,VALID,4.35078,
2009-08-03, 02:29:04,VALID,998.723,VALID,0,VALID,54.2008,VALID,0,VALID,27.8796,VALID,167,VALID,7.05859,
2009-08-03, 02:30:04,VALID,998.757,VALID,0,VALID,54.3076,VALID,0,VALID,27.8991,VALID,167,VALID,5.24492,
2009-08-03, 02:31:04,VALID,998.794,VALID,0,VALID,53.9948,VALID,0,VALID,27.9382,VALID,159,VALID,6.01211,
2009-08-03, 02:32:04,VALID,998.73,VALID,0,VALID,53.9567,VALID,0,VALID,27.8991,VALID,176,VALID,4.76719,
2009-08-03, 02:33:04,VALID,998.7,VALID,0,VALID,54.3153,VALID,0,VALID,27.8796,VALID,155,VALID,5.83867,
2009-08-03, 02:34:04,VALID,998.77,VALID,0,VALID,54.3992,VALID,0,VALID,27.8796,VALID,157,VALID,4.32813,
2009-08-03, 02:35:04,VALID,998.82,VALID,0,VALID,54.1474,VALID,0,VALID,27.8405,VALID,186,VALID,5.20586,
2009-08-03, 02:36:04,VALID,998.733,VALID,0,VALID,53.7812,VALID,0,VALID,27.897,VALID,168,VALID,5.00508,
2009-08-03, 02:37:04,VALID,998.718,VALID,0,VALID,53.5905,VALID,0,VALID,27.9187,VALID,158,VALID,4.5957,
2009-08-03, 02:38:04,VALID,998.739,VALID,0,VALID,53.7888,VALID,0,VALID,27.9187,VALID,169,VALID,4.94141,
2009-08-03, 02:39:04,VALID,998.654,VALID,0,VALID,53.2471,VALID,0,VALID,28.0164,VALID,172,VALID,7.06563,
2009-08-03, 02:40:04,VALID,998.718,VALID,0,VALID,53.3692,VALID,0,VALID,27.9968,VALID,161,VALID,5.35977,
2009-08-03, 02:41:04,VALID,998.677,VALID,0,VALID,53.4989,VALID,0,VALID,27.9968,VALID,172,VALID,5.16328,
2009-08-03, 02:42:04,VALID,998.552,VALID,0,VALID,52.5681,VALID,0,VALID,27.9382,VALID,186,VALID,5.41328,
2009-08-03, 02:43:04,VALID,998.591,VALID,0,VALID,52.8504,VALID,0,VALID,27.9752,VALID,167,VALID,4.63164,
2009-08-03, 02:44:04,VALID,998.611,VALID,0,VALID,53.9948,VALID,0,VALID,27.9382,VALID,144,VALID,3.41992,
2009-08-03, 02:45:04,VALID,998.664,VALID,0,VALID,53.9414,VALID,0,VALID,27.8991,VALID,167,VALID,3.68711,
2009-08-03, 02:46:04,VALID,998.653,VALID,0,VALID,54.4526,VALID,0,VALID,27.8014,VALID,176,VALID,3.68984,
2009-08-03, 02:47:04,VALID,998.689,VALID,0,VALID,54.4602,VALID,0,VALID,27.7407,VALID,169,VALID,4.20781,
2009-08-03, 02:48:04,VALID,998.575,VALID,0,VALID,54.0253,VALID,0,VALID,27.8189,VALID,172,VALID,5.74531,
2009-08-03, 02:49:04,VALID,998.621,VALID,0,VALID,53.8193,VALID,0,VALID,27.8384,VALID,172,VALID,6.00469,
2009-08-03, 02:50:04,VALID,998.587,VALID,0,VALID,53.4379,VALID,0,VALID,27.8991,VALID,179,VALID,4.95391,
2009-08-03, 02:51:04,VALID,998.453,VALID,0,VALID,53.003,VALID,0,VALID,27.9556,VALID,185,VALID,6.22539,
2009-08-03, 02:52:04,VALID,998.507,VALID,0,VALID,53.0564,VALID,0,VALID,28.0142,VALID,182,VALID,7.1457,
2009-08-03, 02:53:04,VALID,998.506,VALID,0,VALID,52.7741,VALID,0,VALID,28.0142,VALID,161,VALID,7.13438,
2009-08-03, 02:54:04,VALID,998.583,VALID,0,VALID,53.2547,VALID,0,VALID,27.9947,VALID,185,VALID,3.48047,
2009-08-03, 02:55:04,VALID,998.525,VALID,0,VALID,53.5523,VALID,0,VALID,27.9556,VALID,185,VALID,3.10195,
2009-08-03, 02:56:04,VALID,998.569,VALID,0,VALID,53.6744,VALID,0,VALID,27.9361,VALID,173,VALID,3.10117,
2009-08-03, 02:57:04,VALID,998.584,VALID,0,VALID,53.9643,VALID,0,VALID,27.8775,VALID,201,VALID,2.28437,
2009-08-03, 02:58:04,VALID,998.556,VALID,0,VALID,53.5065,VALID,0,VALID,27.8601,VALID,169,VALID,2.24688,
2009-08-03, 02:59:04,VALID,998.473,VALID,0,VALID,53.8117,VALID,0,VALID,27.8601,VALID,166,VALID,5.14375,
2009-08-03, 03:00:04,VALID,998.467,VALID,0,VALID,53.7965,VALID,0,VALID,27.8014,VALID,185,VALID,3.91641,
2009-08-03, 03:01:04,VALID,998.431,VALID,0,VALID,53.3234,VALID,0,VALID,27.821,VALID,217,VALID,3.84492,
2009-08-03, 03:02:04,VALID,998.545,VALID,0,VALID,52.8351,VALID,0,VALID,27.8775,VALID,180,VALID,5.88555,
2009-08-03, 03:03:04,VALID,998.5,VALID,0,VALID,52.385,VALID,0,VALID,27.9947,VALID,168,VALID,7.06875,
2009-08-03, 03:04:04,VALID,998.423,VALID,0,VALID,52.1256,VALID,0,VALID,28.0554,VALID,179,VALID,6.94922,
2009-08-03, 03:05:04,VALID,998.427,VALID,0,VALID,52.3697,VALID,0,VALID,28.075,VALID,201,VALID,5.65781,
2009-08-03, 03:06:04,VALID,998.424,VALID,0,VALID,52.713,VALID,0,VALID,28.0554,VALID,207,VALID,4.71484,
2009-08-03, 03:07:04,VALID,998.455,VALID,0,VALID,53.4531,VALID,0,VALID,27.9947,VALID,181,VALID,5.03281,
2009-08-03, 03:08:04,VALID,998.477,VALID,0,VALID,54.1627,VALID,0,VALID,27.9187,VALID,223,VALID,2.48281,
2009-08-03, 03:09:04,VALID,998.469,VALID,0,VALID,54.1169,VALID,0,VALID,27.8405,VALID,181,VALID,3.0043,
2009-08-03, 03:10:04,VALID,998.43,VALID,0,VALID,53.2929,VALID,0,VALID,27.8189,VALID,193,VALID,3.39922,
2009-08-03, 03:11:04,VALID,998.464,VALID,0,VALID,53.2624,VALID,0,VALID,27.8991,VALID,194,VALID,4.32188,
2009-08-03, 03:12:04,VALID,998.471,VALID,0,VALID,52.9114,VALID,0,VALID,27.897,VALID,184,VALID,5.45742,
2009-08-03, 03:13:04,VALID,998.462,VALID,0,VALID,53.331,VALID,0,VALID,27.897,VALID,198,VALID,4.27031,
2009-08-03, 03:14:04,VALID,998.478,VALID,0,VALID,52.7588,VALID,0,VALID,27.8775,VALID,186,VALID,5.01445,
2009-08-03, 03:15:04,VALID,998.461,VALID,0,VALID,52.7741,VALID,0,VALID,27.9382,VALID,173,VALID,6.59375,
2009-08-03, 03:16:04,VALID,998.362,VALID,0,VALID,51.9959,VALID,0,VALID,27.9773,VALID,179,VALID,6.07422,
2009-08-03, 03:17:04,VALID,998.375,VALID,0,VALID,51.7822,VALID,0,VALID,28.0554,VALID,180,VALID,6.73516,
2009-08-03, 03:18:04,VALID,998.316,VALID,0,VALID,51.6296,VALID,0,VALID,28.114,VALID,180,VALID,7.13945,
2009-08-03, 03:19:04,VALID,998.367,VALID,0,VALID,50.7446,VALID,0,VALID,28.1727,VALID,184,VALID,7.50703,
2009-08-03, 03:20:04,VALID,998.363,VALID,0,VALID,50.798,VALID,0,VALID,28.2508,VALID,169,VALID,8.63945,
2009-08-03, 03:21:04,VALID,998.367,VALID,0,VALID,52.3468,VALID,0,VALID,28.1705,VALID,192,VALID,4.5332,
2009-08-03, 03:22:04,VALID,998.362,VALID,0,VALID,53.7354,VALID,0,VALID,28.0359,VALID,198,VALID,3.48477,
2009-08-03, 03:23:04,VALID,998.378,VALID,0,VALID,53.6286,VALID,0,VALID,27.9556,VALID,178,VALID,4.14687,
2009-08-03, 03:24:04,VALID,998.27,VALID,0,VALID,53.3616,VALID,0,VALID,27.8796,VALID,184,VALID,3.99922,
2009-08-03, 03:25:04,VALID,998.264,VALID,0,VALID,53.3997,VALID,0,VALID,27.8189,VALID,204,VALID,3.46563,
2009-08-03, 03:26:04,VALID,998.368,VALID,0,VALID,52.034,VALID,0,VALID,27.897,VALID,175,VALID,7.09961,
2009-08-03, 03:27:04,VALID,998.329,VALID,0,VALID,51.4389,VALID,0,VALID,27.9926,VALID,179,VALID,7.41836,
2009-08-03, 03:28:04,VALID,998.273,VALID,0,VALID,51.6754,VALID,0,VALID,28.0533,VALID,155,VALID,5.15391,
2009-08-03, 03:29:04,VALID,998.277,VALID,0,VALID,51.7212,VALID,0,VALID,28.0142,VALID,178,VALID,5.78203,
2009-08-03, 03:30:04,VALID,998.327,VALID,0,VALID,52.0111,VALID,0,VALID,27.9947,VALID,173,VALID,5.60078,
2009-08-03, 03:31:04,VALID,998.317,VALID,0,VALID,52.7359,VALID,0,VALID,27.9361,VALID,190,VALID,4.23008,
2009-08-03, 03:32:04,VALID,998.227,VALID,0,VALID,52.3239,VALID,0,VALID,27.934,VALID,183,VALID,6.84844,
2009-08-03, 03:33:04,VALID,998.29,VALID,0,VALID,53.476,VALID,0,VALID,27.9144,VALID,217,VALID,3.61172,
2009-08-03, 03:34:04,VALID,998.341,VALID,0,VALID,53.6286,VALID,0,VALID,27.8363,VALID,203,VALID,3.72813,
2009-08-03, 03:35:04,VALID,998.336,VALID,0,VALID,52.9419,VALID,0,VALID,27.8168,VALID,193,VALID,4.20586,
2009-08-03, 03:36:04,VALID,998.294,VALID,0,VALID,51.6525,VALID,0,VALID,27.8168,VALID,189,VALID,3.82891,
2009-08-03, 03:37:04,VALID,998.275,VALID,0,VALID,51.3016,VALID,0,VALID,27.9165,VALID,187,VALID,6.29102,
2009-08-03, 03:38:04,VALID,998.379,VALID,0,VALID,52.9267,VALID,0,VALID,27.9752,VALID,194,VALID,3.92422,
2009-08-03, 03:39:04,VALID,998.412,VALID,0,VALID,53.7278,VALID,0,VALID,27.9165,VALID,199,VALID,2.16328,
2009-08-03, 03:40:04,VALID,998.309,VALID,0,VALID,53.8041,VALID,0,VALID,27.7972,VALID,195,VALID,2.14531,
2009-08-03, 03:41:04,VALID,998.299,VALID,0,VALID,52.9267,VALID,0,VALID,27.7972,VALID,181,VALID,5.69688,
2009-08-03, 03:42:04,VALID,998.302,VALID,0,VALID,52.8809,VALID,0,VALID,27.7603,VALID,174,VALID,4.83164,
2009-08-03, 03:43:04,VALID,998.264,VALID,0,VALID,52.5605,VALID,0,VALID,27.8384,VALID,174,VALID,5.37656,
2009-08-03, 03:44:04,VALID,998.228,VALID,0,VALID,52.6139,VALID,0,VALID,27.8775,VALID,183,VALID,6.83437,
2009-08-03, 03:45:04,VALID,998.296,VALID,0,VALID,52.5681,VALID,0,VALID,27.8775,VALID,174,VALID,4.31914,
2009-08-03, 03:46:04,VALID,998.208,VALID,0,VALID,52.8351,VALID,0,VALID,27.8384,VALID,169,VALID,4.2207,